| time (UTC) | temp F | wind direction | speed MPH | gust MPH | rain 1hr in | rain 24hr in | rain mn in | humidity % | barometer mb |
| 20260505230318 | 55 | 62 | 3.0 | 5.0 | 0.00 | 0.06 | 0.00 | 88 | 1006.9 |
| 20260505230058 | 55 | 56 | 2.0 | 5.0 | 0.00 | 0.06 | 0.00 | 88 | 1006.9 |
| 20260505225716 | 55 | 70 | 3.0 | 7.0 | 0.00 | 0.06 | 0.00 | 88 | 1007.0 |
| 20260505225416 | 55 | 85 | 3.0 | 7.0 | 0.00 | 0.06 | 0.00 | 88 | 1006.9 |
| 20260505225156 | 55 | 64 | 2.0 | 4.0 | 0.00 | 0.06 | 0.00 | 89 | 1006.9 |
| 20260505224816 | 55 | 46 | 3.0 | 9.0 | 0.00 | 0.06 | 0.00 | 88 | 1006.7 |
| 20260505224559 | 55 | 45 | 4.0 | 8.0 | 0.00 | 0.06 | 0.00 | 88 | 1006.6 |
| 20260505224258 | 55 | 45 | 4.0 | 9.0 | 0.00 | 0.06 | 0.00 | 88 | 1006.7 |
| 20260505223916 | 55 | 46 | 4.0 | 9.0 | 0.00 | 0.06 | 0.00 | 88 | 1006.7 |
| 20260505223615 | 55 | 43 | 4.0 | 9.0 | 0.00 | 0.06 | 0.00 | 89 | 1006.7 |
| 20260505223316 | 55 | 40 | 2.0 | 4.0 | 0.00 | 0.06 | 0.00 | 89 | 1006.7 |
| 20260505223015 | 55 | 43 | 2.0 | 4.0 | 0.00 | 0.06 | 0.00 | 88 | 1006.6 |
| 20260505222717 | 55 | 35 | 2.0 | 6.0 | 0.00 | 0.06 | 0.00 | 88 | 1006.6 |
| 20260505222416 | 55 | 39 | 2.0 | 5.0 | 0.00 | 0.06 | 0.00 | 88 | 1006.6 |
| 20260505222238 | 55 | 45 | 1.0 | 3.0 | 0.00 | 0.06 | 0.00 | 88 | 1006.7 |
| 20260505221816 | 56 | 54 | 2.0 | 4.0 | 0.00 | 0.06 | 0.00 | 88 | 1006.7 |
| 20260505221515 | 56 | 48 | 3.0 | 7.0 | 0.00 | 0.06 | 0.00 | 88 | 1006.7 |
| 20260505221257 | 56 | 48 | 3.0 | 6.0 | 0.00 | 0.06 | 0.00 | 88 | 1006.7 |
| 20260505220916 | 56 | 40 | 4.0 | 8.0 | 0.00 | 0.06 | 0.00 | 88 | 1006.7 |
| 20260505220616 | 56 | 44 | 3.0 | 6.0 | 0.00 | 0.06 | 0.00 | 88 | 1006.7 |
| 20260505220318 | 56 | 57 | 3.0 | 5.0 | 0.00 | 0.06 | 0.00 | 88 | 1006.7 |
| 20260505220057 | 56 | 64 | 2.0 | 7.0 | 0.00 | 0.06 | 0.00 | 88 | 1006.8 |
| 20260505215718 | 56 | 63 | 3.0 | 7.0 | 0.00 | 0.06 | 0.06 | 88 | 1006.8 |
| 20260505215415 | 56 | 60 | 6.0 | 13.0 | 0.00 | 0.06 | 0.06 | 88 | 1006.8 |
| 20260505215118 | 56 | 67 | 3.0 | 7.0 | 0.00 | 0.06 | 0.06 | 88 | 1006.8 |
| 20260505214815 | 56 | 77 | 1.0 | 3.0 | 0.00 | 0.06 | 0.06 | 88 | 1006.8 |
| 20260505214517 | 56 | 50 | 2.0 | 5.0 | 0.00 | 0.06 | 0.06 | 88 | 1006.8 |
| 20260505214216 | 56 | 39 | 3.0 | 6.0 | 0.00 | 0.06 | 0.06 | 88 | 1006.8 |
| 20260505213916 | 56 | 44 | 2.0 | 5.0 | 0.00 | 0.06 | 0.06 | 88 | 1006.8 |
| 20260505213616 | 56 | 51 | 2.0 | 5.0 | 0.00 | 0.06 | 0.06 | 88 | 1006.8 |
| 20260505213355 | 56 | 47 | 3.0 | 8.0 | 0.00 | 0.06 | 0.06 | 88 | 1006.8 |
| 20260505213016 | 56 | 51 | 3.0 | 8.0 | 0.00 | 0.06 | 0.06 | 88 | 1006.8 |
| 20260505212717 | 56 | 38 | 3.0 | 7.0 | 0.00 | 0.06 | 0.06 | 88 | 1006.8 |
| 20260505212459 | 56 | 37 | 3.0 | 9.0 | 0.00 | 0.06 | 0.06 | 88 | 1006.8 |
| 20260505212137 | 56 | 40 | 2.0 | 4.0 | 0.00 | 0.06 | 0.06 | 88 | 1006.8 |
| 20260505211516 | 56 | 40 | 2.0 | 5.0 | 0.00 | 0.06 | 0.06 | 88 | 1006.7 |
| 20260505211215 | 56 | 39 | 2.0 | 4.0 | 0.00 | 0.06 | 0.06 | 88 | 1006.8 |
| 20260505210917 | 56 | 40 | 3.0 | 7.0 | 0.00 | 0.06 | 0.06 | 88 | 1006.7 |
| 20260505210615 | 56 | 12 | 3.0 | 7.0 | 0.00 | 0.06 | 0.06 | 88 | 1006.7 |
| 20260505210318 | 56 | 24 | 2.0 | 4.0 | 0.00 | 0.06 | 0.06 | 88 | 1006.7 |
| 20260505210021 | 56 | 29 | 3.0 | 6.0 | 0.00 | 0.06 | 0.06 | 88 | 1006.7 |
| 20260505205716 | 56 | 36 | 2.0 | 5.0 | 0.00 | 0.06 | 0.06 | 88 | 1006.7 |
| 20260505205416 | 56 | 37 | 2.0 | 4.0 | 0.00 | 0.06 | 0.06 | 88 | 1006.8 |
| 20260505205155 | 56 | 26 | 2.0 | 5.0 | 0.00 | 0.06 | 0.06 | 88 | 1006.8 |
| 20260505204818 | 56 | 24 | 3.0 | 6.0 | 0.00 | 0.06 | 0.06 | 87 | 1006.9 |
| 20260505204518 | 56 | 16 | 2.0 | 5.0 | 0.00 | 0.06 | 0.06 | 87 | 1007.0 |
| 20260505204216 | 56 | 11 | 2.0 | 5.0 | 0.00 | 0.06 | 0.06 | 87 | 1007.0 |
| 20260505203916 | 56 | 27 | 2.0 | 5.0 | 0.00 | 0.06 | 0.06 | 87 | 1007.0 |
| 20260505203619 | 56 | 34 | 2.0 | 6.0 | 0.00 | 0.06 | 0.06 | 87 | 1007.0 |
| 20260505203402 | 56 | 44 | 4.0 | 7.0 | 0.00 | 0.06 | 0.06 | 87 | 1007.0 |
| 20260505203015 | 56 | 36 | 2.0 | 5.0 | 0.00 | 0.06 | 0.06 | 87 | 1007.0 |
| 20260505202717 | 56 | 37 | 3.0 | 6.0 | 0.00 | 0.06 | 0.06 | 87 | 1007.0 |
| 20260505202415 | 56 | 45 | 3.0 | 4.0 | 0.00 | 0.06 | 0.06 | 87 | 1007.0 |
| 20260505202118 | 56 | 42 | 2.0 | 7.0 | 0.00 | 0.06 | 0.06 | 87 | 1007.0 |
| 20260505201816 | 56 | 35 | 4.0 | 7.0 | 0.00 | 0.06 | 0.06 | 87 | 1007.0 |
| 20260505201516 | 56 | 46 | 4.0 | 8.0 | 0.00 | 0.06 | 0.06 | 87 | 1007.0 |
| 20260505201216 | 56 | 41 | 3.0 | 8.0 | 0.00 | 0.06 | 0.06 | 87 | 1007.0 |
| 20260505200917 | 56 | 47 | 3.0 | 7.0 | 0.00 | 0.06 | 0.06 | 87 | 1006.9 |
| 20260505200616 | 56 | 33 | 3.0 | 6.0 | 0.00 | 0.06 | 0.06 | 87 | 1006.9 |
| 20260505200315 | 56 | 39 | 3.0 | 6.0 | 0.00 | 0.06 | 0.06 | 87 | 1006.8 |
| 20260505200056 | 56 | 36 | 4.0 | 8.0 | 0.00 | 0.06 | 0.06 | 87 | 1006.8 |
| 20260505195839 | 56 | 27 | 2.0 | 5.0 | 0.00 | 0.06 | 0.06 | 87 | 1006.9 |
| 20260505195416 | 56 | 29 | 2.0 | 5.0 | 0.00 | 0.06 | 0.06 | 87 | 1006.9 |
| 20260505195116 | 56 | 48 | 2.0 | 5.0 | 0.00 | 0.06 | 0.06 | 87 | 1006.9 |
| 20260505194817 | 56 | 44 | 2.0 | 5.0 | 0.00 | 0.06 | 0.06 | 87 | 1006.9 |
| 20260505194516 | 56 | 37 | 2.0 | 5.0 | 0.00 | 0.06 | 0.06 | 87 | 1006.9 |
| 20260505194215 | 56 | 38 | 3.0 | 7.0 | 0.00 | 0.06 | 0.06 | 87 | 1006.9 |
| 20260505193916 | 56 | 23 | 2.0 | 7.0 | 0.00 | 0.06 | 0.06 | 87 | 1007.0 |
| 20260505193619 | 56 | 44 | 2.0 | 5.0 | 0.00 | 0.06 | 0.06 | 86 | 1007.0 |
| 20260505193316 | 56 | 45 | 2.0 | 4.0 | 0.00 | 0.06 | 0.06 | 86 | 1007.0 |
| 20260505193056 | 56 | 51 | 2.0 | 5.0 | 0.00 | 0.06 | 0.06 | 86 | 1007.0 |
| 20260505192719 | 56 | 43 | 1.0 | 3.0 | 0.00 | 0.06 | 0.06 | 86 | 1007.0 |
| 20260505192416 | 56 | 40 | 2.0 | 4.0 | 0.00 | 0.06 | 0.06 | 85 | 1007.0 |
| 20260505192115 | 56 | 41 | 2.0 | 3.0 | 0.00 | 0.06 | 0.06 | 85 | 1006.9 |
| 20260505191857 | 57 | 40 | 2.0 | 7.0 | 0.00 | 0.06 | 0.06 | 85 | 1006.9 |
| 20260505191516 | 57 | 36 | 3.0 | 5.0 | 0.00 | 0.06 | 0.06 | 84 | 1006.9 |
| 20260505191216 | 57 | 44 | 2.0 | 4.0 | 0.00 | 0.06 | 0.06 | 84 | 1006.8 |
| 20260505190916 | 57 | 35 | 2.0 | 7.0 | 0.00 | 0.06 | 0.06 | 84 | 1006.8 |
| 20260505190617 | 57 | 32 | 4.0 | 7.0 | 0.00 | 0.06 | 0.06 | 84 | 1006.9 |
| 20260505190316 | 57 | 37 | 4.0 | 8.0 | 0.00 | 0.06 | 0.06 | 83 | 1006.9 |
| 20260505190015 | 58 | 27 | 3.0 | 7.0 | 0.00 | 0.06 | 0.06 | 83 | 1006.9 |
| 20260505185716 | 58 | 36 | 4.0 | 8.0 | 0.00 | 0.06 | 0.06 | 83 | 1007.0 |
| 20260505185420 | 58 | 34 | 4.0 | 9.0 | 0.00 | 0.06 | 0.06 | 83 | 1006.9 |
| 20260505185116 | 58 | 35 | 3.0 | 6.0 | 0.00 | 0.06 | 0.06 | 84 | 1007.0 |
| 20260505184816 | 58 | 37 | 5.0 | 11.0 | 0.00 | 0.06 | 0.06 | 84 | 1007.0 |
| 20260505184516 | 58 | 37 | 4.0 | 9.0 | 0.00 | 0.06 | 0.06 | 84 | 1007.0 |
| 20260505184216 | 58 | 36 | 3.0 | 10.0 | 0.00 | 0.06 | 0.06 | 84 | 1007.0 |
| 20260505183915 | 58 | 39 | 4.0 | 7.0 | 0.00 | 0.06 | 0.06 | 84 | 1007.0 |
| 20260505183615 | 58 | 50 | 3.0 | 11.0 | 0.00 | 0.06 | 0.06 | 84 | 1007.0 |
| 20260505183319 | 58 | 36 | 3.0 | 8.0 | 0.00 | 0.06 | 0.06 | 84 | 1007.0 |
| 20260505183016 | 58 | 35 | 4.0 | 9.0 | 0.00 | 0.06 | 0.06 | 85 | 1007.0 |
| 20260505182719 | 59 | 38 | 3.0 | 6.0 | 0.00 | 0.06 | 0.06 | 85 | 1006.9 |
| 20260505182416 | 59 | 41 | 5.0 | 14.0 | 0.00 | 0.06 | 0.06 | 85 | 1006.9 |
| 20260505182116 | 59 | 39 | 4.0 | 9.0 | 0.00 | 0.06 | 0.06 | 85 | 1007.0 |
| 20260505181815 | 59 | 33 | 5.0 | 9.0 | 0.00 | 0.06 | 0.06 | 85 | 1007.0 |
| 20260505181556 | 59 | 31 | 3.0 | 10.0 | 0.00 | 0.06 | 0.06 | 86 | 1007.0 |
| 20260505181215 | 59 | 32 | 3.0 | 8.0 | 0.00 | 0.06 | 0.06 | 86 | 1007.0 |
| 20260505180959 | 59 | 37 | 4.0 | 9.0 | 0.00 | 0.06 | 0.06 | 86 | 1007.1 |
| 20260505180616 | 59 | 31 | 2.0 | 5.0 | 0.00 | 0.06 | 0.06 | 86 | 1007.1 |
| 20260505180317 | 59 | 36 | 3.0 | 8.0 | 0.00 | 0.06 | 0.06 | 85 | 1007.1 |
| 20260505180016 | 59 | 36 | 1.0 | 4.0 | 0.00 | 0.06 | 0.06 | 85 | 1007.1 |
| 20260505175715 | 59 | 27 | 1.0 | 4.0 | 0.00 | 0.06 | 0.06 | 85 | 1007.1 |
| 20260505175537 | 59 | 33 | 2.0 | 5.0 | 0.00 | 0.06 | 0.06 | 85 | 1007.1 |
| 20260505175116 | 59 | 32 | 2.0 | 6.0 | 0.00 | 0.06 | 0.06 | 85 | 1007.1 |
| 20260505174816 | 59 | 37 | 2.0 | 5.0 | 0.00 | 0.06 | 0.06 | 85 | 1007.0 |
| 20260505174516 | 59 | 45 | 2.0 | 5.0 | 0.00 | 0.06 | 0.06 | 84 | 1007.1 |
| 20260505174219 | 60 | 37 | 1.0 | 3.0 | 0.00 | 0.06 | 0.06 | 84 | 1007.1 |
| 20260505173916 | 60 | 39 | 2.0 | 6.0 | 0.00 | 0.06 | 0.06 | 84 | 1007.1 |
| 20260505173655 | 60 | 34 | 2.0 | 5.0 | 0.00 | 0.06 | 0.06 | 84 | 1007.1 |
| 20260505173316 | 60 | 16 | 1.0 | 6.0 | 0.00 | 0.06 | 0.06 | 84 | 1007.2 |
| 20260505173016 | 60 | 25 | 1.0 | 3.0 | 0.00 | 0.06 | 0.06 | 84 | 1007.2 |
| 20260505172716 | 60 | 30 | 1.0 | 5.0 | 0.00 | 0.06 | 0.06 | 83 | 1007.2 |
| 20260505172415 | 60 | 33 | 2.0 | 6.0 | 0.00 | 0.06 | 0.06 | 83 | 1007.2 |
| 20260505172116 | 60 | 33 | 3.0 | 8.0 | 0.00 | 0.06 | 0.06 | 83 | 1007.2 |
| 20260505171819 | 60 | 39 | 2.0 | 7.0 | 0.00 | 0.06 | 0.06 | 83 | 1007.2 |
| 20260505171515 | 60 | 39 | 3.0 | 9.0 | 0.00 | 0.06 | 0.06 | 83 | 1007.1 |
| 20260505171217 | 61 | 26 | 3.0 | 7.0 | 0.00 | 0.06 | 0.06 | 83 | 1007.1 |
| 20260505170917 | 61 | 35 | 2.0 | 9.0 | 0.00 | 0.06 | 0.06 | 82 | 1007.1 |
| 20260505170656 | 61 | 38 | 2.0 | 6.0 | 0.00 | 0.06 | 0.06 | 82 | 1007.1 |
| 20260505170356 | 61 | 38 | 1.0 | 4.0 | 0.00 | 0.06 | 0.06 | 82 | 1007.2 |
| 20260505170016 | 61 | 43 | 3.0 | 7.0 | 0.00 | 0.06 | 0.06 | 82 | 1007.2 |
| 20260505165716 | 61 | 47 | 2.0 | 6.0 | 0.00 | 0.06 | 0.06 | 81 | 1007.1 |
| 20260505165416 | 61 | 30 | 1.0 | 5.0 | 0.00 | 0.06 | 0.06 | 81 | 1007.2 |
| 20260505165116 | 61 | 20 | 2.0 | 6.0 | 0.00 | 0.06 | 0.06 | 81 | 1007.2 |
| 20260505164816 | 61 | 5 | 1.0 | 4.0 | 0.00 | 0.06 | 0.06 | 81 | 1007.1 |
| 20260505164516 | 61 | 31 | 1.0 | 4.0 | 0.00 | 0.06 | 0.06 | 81 | 1007.2 |
| 20260505164216 | 62 | 40 | 3.0 | 8.0 | 0.00 | 0.06 | 0.06 | 81 | 1007.2 |
| 20260505163916 | 62 | 36 | 1.0 | 3.0 | 0.00 | 0.06 | 0.06 | 81 | 1007.2 |
| 20260505163616 | 62 | 30 | 1.0 | 4.0 | 0.00 | 0.06 | 0.06 | 81 | 1007.2 |
| 20260505163355 | 62 | 3 | 0.0 | 2.0 | 0.00 | 0.06 | 0.06 | 80 | 1007.2 |
| 20260505163017 | 62 | 27 | 3.0 | 6.0 | 0.00 | 0.06 | 0.06 | 80 | 1007.3 |
| 20260505162716 | 62 | 25 | 2.0 | 5.0 | 0.00 | 0.06 | 0.06 | 80 | 1007.3 |
| 20260505162416 | 62 | 15 | 2.0 | 5.0 | 0.00 | 0.06 | 0.06 | 80 | 1007.3 |
| 20260505162116 | 62 | 26 | 3.0 | 7.0 | 0.00 | 0.06 | 0.06 | 80 | 1007.3 |
| 20260505161817 | 62 | 31 | 3.0 | 7.0 | 0.00 | 0.06 | 0.06 | 80 | 1007.4 |
| 20260505161555 | 62 | 22 | 3.0 | 8.0 | 0.00 | 0.06 | 0.06 | 80 | 1007.5 |
| 20260505161215 | 62 | 23 | 3.0 | 6.0 | 0.00 | 0.06 | 0.06 | 80 | 1007.5 |
| 20260505160916 | 62 | 22 | 1.0 | 5.0 | 0.00 | 0.06 | 0.06 | 80 | 1007.4 |
| 20260505160616 | 62 | 7 | 1.0 | 5.0 | 0.00 | 0.06 | 0.06 | 80 | 1007.4 |
| 20260505160356 | 63 | 9 | 2.0 | 5.0 | 0.00 | 0.06 | 0.06 | 80 | 1007.4 |
| 20260505153316 | 63 | 26 | 3.0 | 7.0 | 0.00 | 0.06 | 0.06 | 79 | 1007.7 |
| 20260505153015 | 63 | 19 | 5.0 | 9.0 | 0.00 | 0.06 | 0.06 | 80 | 1007.7 |
| 20260505152716 | 63 | 19 | 4.0 | 9.0 | 0.00 | 0.06 | 0.06 | 80 | 1007.6 |
| 20260505152417 | 63 | 8 | 4.0 | 9.0 | 0.00 | 0.06 | 0.06 | 80 | 1007.6 |
| 20260505152157 | 63 | 5 | 4.0 | 9.0 | 0.00 | 0.06 | 0.06 | 79 | 1007.6 |
| 20260505151816 | 64 | 13 | 4.0 | 10.0 | 0.00 | 0.06 | 0.06 | 80 | 1007.6 |
| 20260505151517 | 64 | 14 | 3.0 | 6.0 | 0.00 | 0.06 | 0.06 | 80 | 1007.6 |
| 20260505151216 | 64 | 7 | 3.0 | 7.0 | 0.00 | 0.06 | 0.06 | 79 | 1007.7 |
| 20260505150915 | 64 | 29 | 2.0 | 6.0 | 0.00 | 0.06 | 0.06 | 79 | 1007.7 |
| 20260505150616 | 65 | 17 | 4.0 | 7.0 | 0.00 | 0.06 | 0.06 | 80 | 1007.6 |
| 20260505150323 | 64 | 19 | 4.0 | 7.0 | 0.00 | 0.06 | 0.06 | 79 | 1007.6 |
| 20260505140615 | 63 | 326 | 0.0 | 2.0 | 0.00 | 0.06 | 0.06 | 82 | 1007.9 |
| 20260505140316 | 63 | 344 | 2.0 | 5.0 | 0.00 | 0.06 | 0.06 | 82 | 1007.9 |
| 20260505124817 | 60 | 35 | 3.0 | 6.0 | 0.02 | 0.06 | 0.06 | 87 | 1008.5 |
| 20260505124516 | 59 | 13 | 1.0 | 5.0 | 0.02 | 0.06 | 0.06 | 88 | 1008.5 |
| 20260505124257 | 59 | 14 | 2.0 | 4.0 | 0.02 | 0.06 | 0.06 | 88 | 1008.5 |
| 20260505123917 | 59 | 7 | 1.0 | 4.0 | 0.02 | 0.06 | 0.06 | 88 | 1008.5 |
| 20260505123740 | 59 | 18 | 2.0 | 5.0 | 0.02 | 0.06 | 0.06 | 88 | 1008.6 |
| 20260505123316 | 59 | 23 | 1.0 | 5.0 | 0.02 | 0.06 | 0.06 | 88 | 1008.6 |
| 20260505123015 | 59 | 38 | 1.0 | 3.0 | 0.02 | 0.06 | 0.06 | 88 | 1008.6 |
| 20260505122757 | 59 | 41 | 1.0 | 2.0 | 0.02 | 0.06 | 0.06 | 88 | 1008.6 |
| 20260505122416 | 59 | 41 | 0.0 | 2.0 | 0.02 | 0.06 | 0.06 | 88 | 1008.6 |
| 20260505122116 | 59 | 42 | 1.0 | 4.0 | 0.02 | 0.06 | 0.06 | 88 | 1008.6 |
| 20260505121857 | 59 | 29 | 1.0 | 4.0 | 0.02 | 0.06 | 0.06 | 88 | 1008.7 |
| 20260505121516 | 59 | 13 | 1.0 | 4.0 | 0.02 | 0.05 | 0.05 | 88 | 1008.7 |
| 20260505121217 | 59 | 12 | 1.0 | 2.0 | 0.02 | 0.05 | 0.05 | 88 | 1008.7 |
| 20260505120915 | 59 | 17 | 0.0 | 2.0 | 0.01 | 0.04 | 0.04 | 88 | 1008.7 |
| 20260505120617 | 59 | 15 | 0.0 | 2.0 | 0.01 | 0.04 | 0.04 | 88 | 1008.8 |
| 20260505120316 | 59 | 17 | 1.0 | 5.0 | 0.01 | 0.04 | 0.04 | 87 | 1008.7 |
| 20260505120017 | 59 | 24 | 0.0 | 2.0 | 0.01 | 0.04 | 0.04 | 87 | 1008.8 |
| 20260505115715 | 59 | 14 | 0.0 | 2.0 | 0.02 | 0.04 | 0.04 | 87 | 1008.8 |
| 20260505115432 | 59 | 10 | 1.0 | 4.0 | 0.01 | 0.03 | 0.03 | 87 | 1008.8 |
| 20260505115117 | 59 | 10 | 1.0 | 2.0 | 0.01 | 0.03 | 0.03 | 87 | 1008.9 |
| 20260505114815 | 59 | 14 | 1.0 | 4.0 | 0.01 | 0.03 | 0.03 | 87 | 1008.9 |
| 20260505114515 | 59 | 13 | 1.0 | 4.0 | 0.01 | 0.03 | 0.03 | 87 | 1009.0 |
| 20260505114215 | 59 | 13 | 0.0 | 1.0 | 0.01 | 0.03 | 0.03 | 87 | 1009.0 |
| 20260505113917 | 59 | 13 | 0.0 | 1.0 | 0.01 | 0.03 | 0.03 | 87 | 1009.0 |
| 20260505113617 | 59 | 13 | 1.0 | 2.0 | 0.01 | 0.03 | 0.03 | 87 | 1008.9 |
| 20260505113318 | 59 | 14 | 1.0 | 3.0 | 0.01 | 0.03 | 0.03 | 87 | 1008.9 |
| 20260505113017 | 59 | 35 | 1.0 | 3.0 | 0.01 | 0.03 | 0.03 | 87 | 1008.9 |
| 20260505112715 | 59 | 14 | 2.0 | 5.0 | 0.01 | 0.03 | 0.03 | 87 | 1008.8 |
| 20260505112417 | 59 | 8 | 1.0 | 3.0 | 0.01 | 0.03 | 0.03 | 87 | 1008.9 |
| 20260505112156 | 59 | 27 | 1.0 | 2.0 | 0.02 | 0.03 | 0.03 | 87 | 1008.8 |
| 20260505111817 | 59 | 23 | 2.0 | 6.0 | 0.02 | 0.03 | 0.03 | 87 | 1008.8 |
| 20260505111517 | 59 | 16 | 2.0 | 6.0 | 0.02 | 0.03 | 0.03 | 87 | 1008.9 |
| 20260505111217 | 58 | 16 | 2.0 | 5.0 | 0.02 | 0.03 | 0.03 | 87 | 1008.9 |
| 20260505110917 | 59 | 18 | 2.0 | 6.0 | 0.02 | 0.03 | 0.03 | 87 | 1008.9 |
| 20260505110615 | 59 | 45 | 2.0 | 4.0 | 0.02 | 0.03 | 0.03 | 87 | 1008.8 |
| 20260505110317 | 59 | 35 | 1.0 | 4.0 | 0.02 | 0.03 | 0.03 | 87 | 1008.8 |
| 20260505102120 | 58 | 12 | 1.0 | 5.0 | 0.00 | 0.02 | 0.02 | 85 | 1009.0 |
| 20260505101856 | 58 | 15 | 3.0 | 6.0 | 0.00 | 0.02 | 0.02 | 85 | 1009.0 |
| 20260505101517 | 58 | 5 | 2.0 | 6.0 | 0.00 | 0.02 | 0.02 | 85 | 1009.1 |
| 20260505101221 | 58 | 25 | 2.0 | 5.0 | 0.00 | 0.02 | 0.02 | 85 | 1009.0 |
| 20260505100917 | 59 | 13 | 3.0 | 5.0 | 0.00 | 0.02 | 0.02 | 85 | 1009.0 |
| 20260505100617 | 59 | 17 | 2.0 | 5.0 | 0.00 | 0.02 | 0.02 | 85 | 1009.0 |
| 20260505100315 | 59 | 33 | 3.0 | 5.0 | 0.00 | 0.02 | 0.02 | 84 | 1009.1 |
| 20260505100059 | 59 | 37 | 3.0 | 5.0 | 0.00 | 0.02 | 0.02 | 85 | 1009.1 |
| 20260505095723 | 59 | 19 | 3.0 | 6.0 | 0.00 | 0.02 | 0.02 | 85 | 1009.1 |
| 20260505095417 | 59 | 8 | 1.0 | 5.0 | 0.00 | 0.02 | 0.02 | 86 | 1009.1 |
| 20260505095117 | 59 | 41 | 3.0 | 5.0 | 0.00 | 0.02 | 0.02 | 85 | 1009.1 |
| 20260505094818 | 58 | 51 | 1.0 | 7.0 | 0.00 | 0.02 | 0.02 | 85 | 1009.1 |
| 20260505094517 | 58 | 21 | 1.0 | 4.0 | 0.00 | 0.02 | 0.02 | 85 | 1009.1 |
| 20260505094215 | 58 | 17 | 3.0 | 8.0 | 0.00 | 0.02 | 0.02 | 85 | 1009.2 |
| 20260505093957 | 58 | 22 | 2.0 | 4.0 | 0.00 | 0.02 | 0.02 | 85 | 1009.3 |
| 20260505093615 | 58 | 13 | 3.0 | 6.0 | 0.00 | 0.02 | 0.02 | 85 | 1009.2 |
| 20260505093317 | 58 | 14 | 3.0 | 6.0 | 0.00 | 0.02 | 0.02 | 85 | 1009.2 |
| 20260505093017 | 58 | 30 | 1.0 | 5.0 | 0.00 | 0.02 | 0.02 | 85 | 1009.1 |
| 20260505092723 | 58 | 28 | 2.0 | 6.0 | 0.00 | 0.02 | 0.02 | 85 | 1009.2 |
| 20260505092415 | 58 | 27 | 3.0 | 7.0 | 0.00 | 0.02 | 0.02 | 85 | 1009.2 |
| 20260505092120 | 58 | 39 | 3.0 | 8.0 | 0.00 | 0.02 | 0.02 | 85 | 1009.2 |
| 20260505091857 | 58 | 47 | 1.0 | 4.0 | 0.00 | 0.02 | 0.02 | 85 | 1009.2 |
| 20260505091518 | 58 | 29 | 1.0 | 5.0 | 0.00 | 0.02 | 0.02 | 85 | 1009.3 |
| 20260505091217 | 58 | 19 | 1.0 | 5.0 | 0.00 | 0.02 | 0.02 | 85 | 1009.3 |
| 20260505090917 | 58 | 29 | 2.0 | 5.0 | 0.00 | 0.02 | 0.02 | 84 | 1009.4 |
| 20260505090620 | 58 | 37 | 2.0 | 5.0 | 0.01 | 0.02 | 0.02 | 84 | 1009.4 |
| 20260505090317 | 59 | 43 | 2.0 | 5.0 | 0.01 | 0.02 | 0.02 | 85 | 1009.5 |
| 20260505090017 | 59 | 29 | 2.0 | 5.0 | 0.01 | 0.02 | 0.02 | 85 | 1009.5 |
| 20260505085717 | 59 | 27 | 2.0 | 5.0 | 0.01 | 0.02 | 0.02 | 85 | 1009.5 |
| 20260505085415 | 59 | 42 | 3.0 | 7.0 | 0.01 | 0.02 | 0.02 | 86 | 1009.5 |
| 20260505085117 | 59 | 8 | 2.0 | 5.0 | 0.01 | 0.02 | 0.02 | 86 | 1009.5 |
| 20260505084817 | 59 | 18 | 0.0 | 4.0 | 0.01 | 0.02 | 0.02 | 86 | 1009.5 |
| 20260505084520 | 58 | 33 | 2.0 | 5.0 | 0.01 | 0.02 | 0.02 | 86 | 1009.5 |
| 20260505084217 | 58 | 45 | 3.0 | 5.0 | 0.01 | 0.02 | 0.02 | 86 | 1009.5 |
| 20260505083915 | 58 | 37 | 2.0 | 4.0 | 0.01 | 0.02 | 0.02 | 86 | 1009.4 |
| 20260505083616 | 59 | 43 | 2.0 | 5.0 | 0.01 | 0.02 | 0.02 | 86 | 1009.4 |
| 20260505083316 | 59 | 35 | 2.0 | 5.0 | 0.01 | 0.02 | 0.02 | 86 | 1009.4 |
| 20260505083017 | 59 | 40 | 2.0 | 5.0 | 0.01 | 0.02 | 0.02 | 86 | 1009.4 |
| 20260505082717 | 59 | 45 | 1.0 | 3.0 | 0.01 | 0.02 | 0.02 | 86 | 1009.4 |
| 20260505082417 | 59 | 49 | 1.0 | 4.0 | 0.01 | 0.02 | 0.02 | 86 | 1009.4 |
| 20260505082117 | 59 | 46 | 2.0 | 4.0 | 0.01 | 0.02 | 0.02 | 86 | 1009.4 |
| 20260505081815 | 59 | 42 | 2.0 | 4.0 | 0.02 | 0.02 | 0.02 | 86 | 1009.4 |
| 20260505081516 | 59 | 55 | 1.0 | 3.0 | 0.02 | 0.02 | 0.02 | 86 | 1009.4 |
| 20260505081215 | 59 | 55 | 1.0 | 3.0 | 0.02 | 0.02 | 0.02 | 86 | 1009.4 |
| 20260505080917 | 59 | 55 | 1.0 | 3.0 | 0.02 | 0.02 | 0.02 | 86 | 1009.4 |
| 20260505080617 | 59 | 98 | 1.0 | 3.0 | 0.01 | 0.01 | 0.01 | 86 | 1009.4 |
| 20260505080316 | 59 | 98 | 1.0 | 2.0 | 0.01 | 0.01 | 0.01 | 86 | 1009.4 |
| 20260505080019 | 59 | 98 | 0.0 | 1.0 | 0.01 | 0.01 | 0.01 | 86 | 1009.4 |
| 20260505075715 | 58 | 98 | 1.0 | 2.0 | 0.01 | 0.01 | 0.01 | 86 | 1009.3 |
| 20260505075417 | 58 | 98 | 0.0 | 2.0 | 0.01 | 0.01 | 0.01 | 86 | 1009.4 |
| 20260505075116 | 58 | 98 | 1.0 | 2.0 | 0.01 | 0.01 | 0.01 | 86 | 1009.4 |
| 20260505074817 | 58 | 98 | 0.0 | 2.0 | 0.01 | 0.01 | 0.01 | 86 | 1009.4 |
| 20260505074517 | 58 | 98 | 0.0 | 1.0 | 0.01 | 0.01 | 0.01 | 86 | 1009.3 |
| 20260505074218 | 58 | 0.0 | 0.0 | 0.01 | 0.01 | 0.01 | 86 | 1009.3 | |
| 20260505073916 | 58 | 98 | 0.0 | 1.0 | 0.01 | 0.01 | 0.01 | 86 | 1009.3 |
| 20260505073658 | 58 | 98 | 0.0 | 1.0 | 0.01 | 0.01 | 0.01 | 86 | 1009.2 |
| 20260505073317 | 58 | 98 | 0.0 | 2.0 | 0.01 | 0.01 | 0.01 | 86 | 1009.2 |
| 20260505073015 | 58 | 98 | 0.0 | 2.0 | 0.01 | 0.01 | 0.01 | 86 | 1009.2 |
| 20260505072755 | 58 | 98 | 0.0 | 1.0 | 0.01 | 0.01 | 0.01 | 86 | 1009.2 |
| 20260505072417 | 58 | 98 | 0.0 | 1.0 | 0.01 | 0.01 | 0.01 | 86 | 1009.2 |
| 20260505072157 | 58 | 98 | 0.0 | 1.0 | 0.01 | 0.01 | 0.01 | 85 | 1009.2 |
| 20260505071857 | 58 | 98 | 0.0 | 1.0 | 0.00 | 0.00 | 0.00 | 85 | 1009.3 |
| 20260505071515 | 58 | 98 | 0.0 | 1.0 | 0.00 | 0.00 | 0.00 | 85 | 1009.3 |
| 20260505071420 | 58 | 98 | 0.0 | 1.0 | 0.00 | 0.00 | 0.00 | 84 | 1009.3 |
| 20260505070916 | 58 | 0.0 | 0.0 | 0.00 | 0.00 | 0.00 | 84 | 1009.3 | |
| 20260505070620 | 58 | 0.0 | 0.0 | 0.00 | 0.00 | 0.00 | 84 | 1009.3 | |
| 20260505070318 | 58 | 98 | 0.0 | 1.0 | 0.00 | 0.00 | 0.00 | 84 | 1009.2 |
| 20260505070017 | 58 | 98 | 0.0 | 2.0 | 0.00 | 0.00 | 0.00 | 84 | 1009.2 |
| 20260505065717 | 58 | 98 | 0.0 | 1.0 | 0.00 | 0.00 | 0.00 | 84 | 1009.2 |
| 20260505065415 | 58 | 98 | 0.0 | 1.0 | 0.00 | 0.00 | 0.00 | 84 | 1009.1 |
| 20260505065116 | 58 | 98 | 0.0 | 1.0 | 0.00 | 0.00 | 0.00 | 84 | 1009.1 |
| 20260505064815 | 58 | 0.0 | 0.0 | 0.00 | 0.00 | 0.00 | 84 | 1009.2 | |
| 20260505064523 | 58 | 98 | 0.0 | 1.0 | 0.00 | 0.00 | 0.00 | 84 | 1009.2 |
| 20260505064217 | 58 | 0.0 | 0.0 | 0.00 | 0.00 | 0.00 | 84 | 1009.2 | |
| 20260505063917 | 58 | 98 | 0.0 | 1.0 | 0.00 | 0.00 | 0.00 | 85 | 1009.2 |
| 20260505063617 | 58 | 98 | 0.0 | 1.0 | 0.00 | 0.00 | 0.00 | 85 | 1009.2 |
| 20260505063315 | 58 | 98 | 0.0 | 1.0 | 0.00 | 0.00 | 0.00 | 85 | 1009.2 |
| 20260505063016 | 58 | 98 | 0.0 | 1.0 | 0.00 | 0.00 | 0.00 | 84 | 1009.2 |
| 20260505062715 | 58 | 98 | 0.0 | 1.0 | 0.00 | 0.00 | 0.00 | 84 | 1009.3 |
| 20260505062420 | 58 | 98 | 0.0 | 2.0 | 0.00 | 0.00 | 0.00 | 85 | 1009.2 |
| 20260505062117 | 58 | 98 | 0.0 | 1.0 | 0.00 | 0.00 | 0.00 | 84 | 1009.2 |
| 20260505061856 | 58 | 98 | 0.0 | 1.0 | 0.00 | 0.00 | 0.00 | 85 | 1009.2 |
| 20260505061557 | 57 | 98 | 0.0 | 1.0 | 0.00 | 0.00 | 0.00 | 84 | 1009.3 |
| 20260505061218 | 57 | 98 | 1.0 | 3.0 | 0.00 | 0.00 | 0.00 | 85 | 1009.3 |
| 20260505060917 | 57 | 98 | 1.0 | 3.0 | 0.00 | 0.00 | 0.00 | 85 | 1009.3 |
| 20260505060735 | 57 | 98 | 1.0 | 4.0 | 0.00 | 0.00 | 0.00 | 85 | 1009.3 |
| 20260505060323 | 57 | 98 | 1.0 | 3.0 | 0.00 | 0.00 | 0.00 | 85 | 1009.3 |
| 20260505060020 | 57 | 98 | 0.0 | 2.0 | 0.00 | 0.00 | 0.00 | 84 | 1009.3 |
| 20260505055717 | 57 | 98 | 1.0 | 2.0 | 0.00 | 0.00 | 0.00 | 85 | 1009.2 |
| 20260505055416 | 57 | 97 | 1.0 | 3.0 | 0.00 | 0.00 | 0.00 | 85 | 1009.3 |
| 20260505055115 | 57 | 79 | 1.0 | 3.0 | 0.00 | 0.00 | 0.00 | 85 | 1009.3 |
| 20260505054819 | 57 | 75 | 1.0 | 2.0 | 0.00 | 0.00 | 0.00 | 85 | 1009.2 |
| 20260505054515 | 57 | 75 | 1.0 | 2.0 | 0.00 | 0.00 | 0.00 | 85 | 1009.2 |
| 20260505054216 | 57 | 75 | 0.0 | 1.0 | 0.00 | 0.00 | 0.00 | 85 | 1009.2 |
| 20260505053957 | 57 | 75 | 1.0 | 2.0 | 0.00 | 0.00 | 0.00 | 85 | 1009.1 |
| 20260505053617 | 57 | 75 | 0.0 | 2.0 | 0.00 | 0.00 | 0.00 | 85 | 1009.2 |
| 20260505053317 | 57 | 75 | 1.0 | 2.0 | 0.00 | 0.00 | 0.00 | 85 | 1009.2 |
| 20260505053015 | 57 | 75 | 1.0 | 2.0 | 0.00 | 0.00 | 0.00 | 85 | 1009.2 |
| 20260505052716 | 57 | 75 | 1.0 | 2.0 | 0.00 | 0.00 | 0.00 | 85 | 1009.1 |
| 20260505052417 | 57 | 75 | 0.0 | 2.0 | 0.00 | 0.00 | 0.00 | 84 | 1009.1 |
| 20260505052157 | 57 | 77 | 1.0 | 3.0 | 0.00 | 0.00 | 0.00 | 84 | 1009.1 |
| 20260505051815 | 57 | 88 | 2.0 | 4.0 | 0.00 | 0.00 | 0.00 | 84 | 1009.2 |
| 20260505051517 | 57 | 80 | 2.0 | 4.0 | 0.00 | 0.00 | 0.00 | 84 | 1009.2 |
| 20260505051217 | 57 | 92 | 2.0 | 4.0 | 0.00 | 0.00 | 0.00 | 84 | 1009.2 |
| 20260505050915 | 57 | 91 | 2.0 | 3.0 | 0.00 | 0.00 | 0.00 | 84 | 1009.3 |
| 20260505050616 | 57 | 95 | 1.0 | 3.0 | 0.00 | 0.00 | 0.00 | 84 | 1009.2 |
| 20260505050359 | 57 | 95 | 1.0 | 2.0 | 0.00 | 0.00 | 0.00 | 84 | 1009.3 |
| 20260505041517 | 56 | 78 | 3.0 | 6.0 | 0.00 | 0.00 | 0.00 | 84 | 1009.2 |
| 20260505041257 | 56 | 78 | 3.0 | 7.0 | 0.00 | 0.00 | 0.00 | 84 | 1009.2 |
| 20260505040916 | 56 | 69 | 2.0 | 4.0 | 0.00 | 0.00 | 0.00 | 84 | 1009.2 |
| 20260505040657 | 56 | 70 | 4.0 | 9.0 | 0.00 | 0.00 | 0.00 | 84 | 1009.2 |
| 20260505040316 | 56 | 65 | 3.0 | 6.0 | 0.00 | 0.00 | 0.00 | 84 | 1009.2 |
| 20260505040055 | 56 | 68 | 3.0 | 8.0 | 0.00 | 0.00 | 0.00 | 84 | 1009.2 |
| 20260505035759 | 56 | 67 | 3.0 | 8.0 | 0.00 | 0.00 | 0.00 | 84 | 1009.2 |
| 20260505035417 | 56 | 73 | 4.0 | 8.0 | 0.00 | 0.00 | 0.00 | 84 | 1009.2 |
| 20260505035117 | 56 | 71 | 4.0 | 6.0 | 0.00 | 0.00 | 0.00 | 84 | 1009.3 |
| 20260505034818 | 56 | 66 | 3.0 | 6.0 | 0.00 | 0.00 | 0.00 | 84 | 1009.4 |
| 20260505034516 | 56 | 75 | 2.0 | 4.0 | 0.00 | 0.00 | 0.00 | 84 | 1009.5 |
| 20260505034257 | 56 | 80 | 2.0 | 3.0 | 0.00 | 0.00 | 0.00 | 84 | 1009.6 |
| 20260505033915 | 56 | 85 | 2.0 | 4.0 | 0.00 | 0.00 | 0.00 | 84 | 1009.7 |
| 20260505033619 | 56 | 69 | 2.0 | 3.0 | 0.00 | 0.00 | 0.00 | 84 | 1009.6 |
| 20260505033316 | 56 | 49 | 1.0 | 4.0 | 0.00 | 0.00 | 0.00 | 84 | 1009.6 |
| 20260505033017 | 56 | 61 | 1.0 | 5.0 | 0.00 | 0.00 | 0.00 | 84 | 1009.7 |
| 20260505032757 | 56 | 44 | 2.0 | 3.0 | 0.00 | 0.00 | 0.00 | 84 | 1009.6 |
| 20260505032417 | 56 | 25 | 1.0 | 4.0 | 0.00 | 0.00 | 0.00 | 83 | 1009.7 |
| 20260505032115 | 56 | 25 | 0.0 | 2.0 | 0.00 | 0.00 | 0.00 | 83 | 1009.8 |
| 20260505031815 | 56 | 69 | 1.0 | 3.0 | 0.00 | 0.00 | 0.00 | 83 | 1009.8 |
| 20260505031516 | 56 | 81 | 1.0 | 3.0 | 0.00 | 0.00 | 0.00 | 83 | 1009.8 |
| 20260505031217 | 57 | 76 | 1.0 | 2.0 | 0.00 | 0.00 | 0.00 | 82 | 1009.8 |
| 20260505030955 | 57 | 73 | 1.0 | 3.0 | 0.00 | 0.00 | 0.00 | 82 | 1009.8 |
| 20260505030620 | 57 | 68 | 2.0 | 4.0 | 0.00 | 0.00 | 0.00 | 82 | 1009.9 |
| 20260505030317 | 57 | 65 | 3.0 | 6.0 | 0.00 | 0.00 | 0.00 | 82 | 1009.9 |
| 20260505030016 | 57 | 62 | 1.0 | 3.0 | 0.00 | 0.00 | 0.00 | 81 | 1009.9 |
| 20260505025715 | 57 | 63 | 1.0 | 3.0 | 0.00 | 0.00 | 0.00 | 81 | 1009.8 |
| 20260505025417 | 57 | 57 | 3.0 | 6.0 | 0.00 | 0.00 | 0.00 | 81 | 1009.9 |
| 20260505025117 | 57 | 81 | 3.0 | 6.0 | 0.00 | 0.00 | 0.00 | 81 | 1010.1 |
| 20260505024817 | 57 | 86 | 1.0 | 2.0 | 0.00 | 0.00 | 0.00 | 81 | 1010.2 |
| 20260505024517 | 57 | 86 | 1.0 | 2.0 | 0.00 | 0.00 | 0.00 | 81 | 1010.2 |
| 20260505024217 | 57 | 86 | 0.0 | 2.0 | 0.00 | 0.00 | 0.00 | 81 | 1010.2 |
| 20260505023916 | 57 | 74 | 2.0 | 4.0 | 0.00 | 0.00 | 0.00 | 81 | 1010.1 |
| 20260505023615 | 57 | 60 | 2.0 | 6.0 | 0.00 | 0.00 | 0.00 | 81 | 1010.0 |
| 20260505023357 | 57 | 57 | 2.0 | 6.0 | 0.00 | 0.00 | 0.00 | 81 | 1009.9 |
| 20260505023017 | 57 | 54 | 3.0 | 5.0 | 0.00 | 0.00 | 0.00 | 81 | 1009.8 |
| 20260505022717 | 57 | 47 | 2.0 | 6.0 | 0.00 | 0.00 | 0.00 | 81 | 1009.9 |
| 20260505022457 | 57 | 51 | 2.0 | 5.0 | 0.00 | 0.00 | 0.00 | 81 | 1009.8 |
| 20260505022117 | 57 | 51 | 2.0 | 5.0 | 0.00 | 0.00 | 0.00 | 81 | 1009.9 |
| 20260505021816 | 57 | 62 | 2.0 | 4.0 | 0.00 | 0.00 | 0.00 | 81 | 1010.0 |
| 20260505021555 | 57 | 65 | 2.0 | 6.0 | 0.00 | 0.00 | 0.00 | 81 | 1010.0 |
| 20260505021257 | 57 | 70 | 2.0 | 7.0 | 0.00 | 0.00 | 0.00 | 81 | 1010.0 |
| 20260505020957 | 57 | 72 | 1.0 | 3.0 | 0.00 | 0.00 | 0.00 | 81 | 1010.1 |
| 20260505020617 | 57 | 66 | 2.0 | 4.0 | 0.00 | 0.00 | 0.00 | 81 | 1010.1 |
| 20260505020317 | 57 | 57 | 1.0 | 3.0 | 0.00 | 0.00 | 0.00 | 81 | 1010.1 |
| 20260505020017 | 57 | 68 | 1.0 | 2.0 | 0.00 | 0.00 | 0.00 | 81 | 1010.1 |
| 20260505015719 | 57 | 63 | 1.0 | 3.0 | 0.00 | 0.00 | 0.00 | 81 | 1010.2 |
| 20260505015415 | 57 | 55 | 2.0 | 7.0 | 0.00 | 0.00 | 0.00 | 82 | 1010.2 |
| 20260505015116 | 57 | 45 | 1.0 | 3.0 | 0.00 | 0.00 | 0.00 | 82 | 1010.2 |
| 20260505014816 | 57 | 52 | 2.0 | 5.0 | 0.00 | 0.00 | 0.00 | 82 | 1010.3 |
| 20260505014517 | 56 | 52 | 2.0 | 4.0 | 0.00 | 0.00 | 0.00 | 83 | 1010.3 |
| 20260505014217 | 56 | 67 | 1.0 | 3.0 | 0.00 | 0.00 | 0.00 | 83 | 1010.3 |
| 20260505013917 | 56 | 42 | 1.0 | 4.0 | 0.00 | 0.00 | 0.00 | 83 | 1010.3 |
| 20260505013616 | 56 | 39 | 1.0 | 2.0 | 0.00 | 0.00 | 0.00 | 83 | 1010.3 |
| 20260505013315 | 56 | 39 | 1.0 | 2.0 | 0.00 | 0.00 | 0.00 | 83 | 1010.4 |
| 20260505013016 | 56 | 39 | 0.0 | 2.0 | 0.00 | 0.00 | 0.00 | 83 | 1010.4 |
| 20260505012717 | 56 | 39 | 1.0 | 3.0 | 0.00 | 0.00 | 0.00 | 82 | 1010.4 |
| 20260505012416 | 56 | 40 | 1.0 | 3.0 | 0.00 | 0.00 | 0.00 | 82 | 1010.4 |
| 20260505012117 | 56 | 40 | 1.0 | 3.0 | 0.00 | 0.00 | 0.00 | 82 | 1010.4 |
| 20260505011817 | 57 | 40 | 0.0 | 2.0 | 0.00 | 0.00 | 0.00 | 82 | 1010.4 |
| 20260505011516 | 57 | 40 | 1.0 | 2.0 | 0.00 | 0.00 | 0.00 | 82 | 1010.4 |
| 20260505011215 | 57 | 45 | 1.0 | 4.0 | 0.00 | 0.00 | 0.00 | 82 | 1010.4 |
| 20260505010916 | 57 | 43 | 1.0 | 5.0 | 0.00 | 0.00 | 0.00 | 82 | 1010.5 |
| 20260505010620 | 57 | 53 | 1.0 | 4.0 | 0.00 | 0.00 | 0.00 | 82 | 1010.5 |
| 20260505010317 | 57 | 44 | 2.0 | 4.0 | 0.00 | 0.00 | 0.00 | 82 | 1010.6 |
| 20260505010015 | 57 | 35 | 2.0 | 6.0 | 0.00 | 0.00 | 0.00 | 82 | 1010.6 |
| 20260505005757 | 57 | 33 | 2.0 | 4.0 | 0.00 | 0.00 | 0.00 | 82 | 1010.6 |
| 20260505005431 | 56 | 38 | 2.0 | 5.0 | 0.00 | 0.00 | 0.00 | 82 | 1010.6 |
| 20260505005115 | 56 | 40 | 2.0 | 5.0 | 0.00 | 0.00 | 0.00 | 82 | 1010.6 |
| 20260505004815 | 56 | 42 | 2.0 | 5.0 | 0.00 | 0.00 | 0.00 | 83 | 1010.7 |
| 20260505004517 | 56 | 38 | 2.0 | 4.0 | 0.00 | 0.00 | 0.00 | 83 | 1010.7 |
| 20260505004217 | 56 | 39 | 2.0 | 4.0 | 0.00 | 0.00 | 0.00 | 83 | 1010.7 |
| 20260505003917 | 56 | 43 | 1.0 | 2.0 | 0.00 | 0.00 | 0.00 | 83 | 1010.7 |
| 20260505003617 | 56 | 43 | 1.0 | 3.0 | 0.00 | 0.00 | 0.00 | 83 | 1010.7 |
| 20260505003320 | 56 | 43 | 1.0 | 3.0 | 0.00 | 0.00 | 0.00 | 83 | 1010.8 |
| 20260505003015 | 56 | 43 | 1.0 | 3.0 | 0.00 | 0.00 | 0.00 | 83 | 1010.9 |
| 20260505002756 | 56 | 43 | 2.0 | 3.0 | 0.00 | 0.00 | 0.00 | 83 | 1010.9 |
| 20260505002417 | 56 | 43 | 0.0 | 1.0 | 0.00 | 0.00 | 0.00 | 83 | 1011.0 |
| 20260505002117 | 56 | 43 | 0.0 | 1.0 | 0.00 | 0.00 | 0.00 | 83 | 1011.0 |
| 20260505001818 | 56 | 43 | 0.0 | 2.0 | 0.00 | 0.00 | 0.00 | 83 | 1011.0 |
| 20260505001517 | 57 | 43 | 0.0 | 1.0 | 0.00 | 0.00 | 0.00 | 83 | 1011.0 |
| 20260505001220 | 56 | 43 | 0.0 | 2.0 | 0.00 | 0.00 | 0.00 | 82 | 1011.1 |
| 20260505000915 | 57 | 43 | 0.0 | 2.0 | 0.00 | 0.00 | 0.00 | 82 | 1011.1 |
| 20260505000616 | 57 | 43 | 1.0 | 4.0 | 0.00 | 0.00 | 0.00 | 82 | 1011.1 |
| 20260505000317 | 57 | 43 | 2.0 | 3.0 | 0.00 | 0.00 | 0.00 | 82 | 1011.1 |
| 20260505000017 | 57 | 43 | 2.0 | 4.0 | 0.00 | 0.00 | 0.00 | 82 | 1011.1 |
| 20260504235720 | 57 | 31 | 1.0 | 4.0 | 0.00 | 0.00 | 0.00 | 83 | 1011.1 |
| 20260504235417 | 56 | 27 | 2.0 | 5.0 | 0.00 | 0.00 | 0.00 | 83 | 1011.2 |
| 20260504235116 | 56 | 36 | 2.0 | 3.0 | 0.00 | 0.00 | 0.00 | 83 | 1011.2 |
| 20260504234817 | 56 | 36 | 1.0 | 3.0 | 0.00 | 0.00 | 0.00 | 83 | 1011.1 |
| 20260504234516 | 56 | 35 | 1.0 | 3.0 | 0.00 | 0.00 | 0.00 | 83 | 1011.2 |
| 20260504234217 | 56 | 32 | 1.0 | 5.0 | 0.00 | 0.00 | 0.00 | 83 | 1011.1 |
| 20260504233916 | 56 | 29 | 0.0 | 2.0 | 0.00 | 0.00 | 0.00 | 83 | 1011.2 |
| 20260504233617 | 56 | 29 | 1.0 | 2.0 | 0.00 | 0.00 | 0.00 | 83 | 1011.2 |
| 20260504233320 | 56 | 29 | 1.0 | 3.0 | 0.00 | 0.00 | 0.00 | 82 | 1011.2 |
| 20260504233016 | 57 | 32 | 1.0 | 2.0 | 0.00 | 0.00 | 0.00 | 82 | 1011.2 |
| 20260504232716 | 57 | 32 | 1.0 | 3.0 | 0.00 | 0.00 | 0.00 | 82 | 1011.2 |
| 20260504232416 | 57 | 36 | 2.0 | 4.0 | 0.00 | 0.00 | 0.00 | 82 | 1011.3 |
| 20260504232117 | 57 | 26 | 2.0 | 5.0 | 0.00 | 0.00 | 0.00 | 81 | 1011.3 |
| 20260504231817 | 57 | 22 | 2.0 | 4.0 | 0.00 | 0.00 | 0.00 | 81 | 1011.3 |
| 20260504231516 | 57 | 19 | 1.0 | 4.0 | 0.00 | 0.00 | 0.00 | 81 | 1011.3 |
| 20260504231217 | 57 | 10 | 2.0 | 5.0 | 0.00 | 0.00 | 0.00 | 81 | 1011.3 |
| 20260504230916 | 57 | 9 | 2.0 | 5.0 | 0.00 | 0.00 | 0.00 | 81 | 1011.3 |